Время (UTC), дата Ветер
(°,м/с) 
Видим.   Явления Облачность Т
(°С)
Тd
(°С)
f(%) Тe
(°С)
Pmin
(гПа)
dP
(гПа)
Po
(мм)
O2
(г/м3)
Тmin Tmax R s Состояние
почвы
00 01.01.11 тихо ()   4000 м  слаб. снег  10/5 2000 м средняя, верхняя 
[Ac trans|Cs]
-29 -31.3 80 -29  1045.4  0.8  754  342  -29    0.2  28  равномерный
сухой снег
100% 
06 01.01.11 010 (С) 2000 м  слаб. снег  10/0 верхняя 
[Cs]
-27.8 -30.3 79 -28  1047.7  0.5  756  341           
09 01.01.11 320 (СЗ) 2000 м  слаб. снег  10/0 верхняя 
[Cs]
-27.7 -20.1 100 -28  1049.1  1.3  757  341           
12 01.01.11 250 (З) н/о  слаб. снег{туман}  10/0 верхняя 
[Cs]
-30.5 -32.1 88 -31  1051.8  2.1  759  346    -27  0.2     
15 01.01.11 240 (ЮЗ) н/о  дымка{снег}  ясно 
-31.3 -33 84 -32  1052.3  0.5  759  347           
18 01.01.11 тихо ()   н/о  дымка{снег}  ясно 
-31.5 -33.2 84 -32  1053.3  0.8  760  348           
21 01.01.11 250 (З) н/о  дымка  ясно 
-32.5 -34.8 80 -33  1053.8  0.3  760  350           
00 02.01.11 тихо ()   н/о  дымка  ясно 
-34 -36.1 80 -34  1054.8  0.8  761  352  -34    0.0  27  равномерный
сухой снег
100% 
06 02.01.11 тихо ()   >10 км    4/0 верхняя 
[Ci fib]
-31.3 -33.6 80 -31  1055.9  0.4  762  349           
09 02.01.11 тихо ()   4000 м  дымка  10/0 верхняя 
[Cs]
-30.8 -33.8 74 -31  1055.7  -0.1  762  348           
12 02.01.11 тихо ()   н/о  дымка  ясно 
-30.5 -33.4 77 -31  1056.2  0.6  762  348    -30.5       
15 02.01.11 тихо ()   н/о  дымка  10/0 верхняя 
[Cs]
-31.1 -34 76 -31  1056.4  762  349           
18 02.01.11 тихо ()   н/о  дымка  10/0 верхняя 
[Cs]
-32 -35 74 -32  1056.5  762  350           
21 02.01.11 тихо ()   н/о  дымка  10/0 верхняя 
[Cs]
-32.4 -35.5 75 -32  1056.6  0.1  762  350           
00 03.01.11 тихо ()   н/о  дымка  ясно 
-33 -36 74 -33  1057.2  0.4  762  351  -33      27  равномерный
сухой снег
100% 
03 03.01.11 тихо ()   2000 м  дымка  4/0 верхняя 
[Ci fib]
-32.4 -34.8 80 -32  1058  0.9  763  351           
06 03.01.11 тихо ()   2000 м  дымка  10/0 верхняя 
[Cs]
-31.5 -33.8 80 -32  1058.2  0.2  763  350           
09 03.01.11 тихо ()   4000 м  дымка  10/0 верхняя 
[Cs]
-31.3 -33.6 80 -31  1058.5  0.4  764  349           
12 03.01.11 тихо ()   н/о  дымка  ясно 
-32.8 -35.1 79 -33  1059.5  0.7  764  352    -31.3       
15 03.01.11 тихо ()   н/о  ледяные иглы  5/0 верхняя 
[Ci fib]
-32.8 -35.1 79 -33  1059.4  -0.1  764  352           
18 03.01.11 тихо ()   н/о  ледяные иглы  4/0 верхняя 
[Ci fib]
-32.9 -35.1 82 -33  1059.4  764  352           
21 03.01.11 тихо ()   н/о  ледяные иглы  ясно 
-32.5 -34.8 80 -33  1060  0.6  764  352           
00 04.01.11 тихо ()   н/о  дымка  ясно 
-33.4 -35.6 78 -33  1060.3  0.3  765  353  -33.5      27  равномерный
сухой снег
100% 
03 04.01.11 тихо ()   4000 м  дымка  ясно 
-33.4 -35.6 78 -33  1060.8  0.5  765  353           
06 04.01.11 тихо ()   2000 м  дымка  ясно 
-30.8 -33.2 79 -31  1061  0.4  765  350           
09 04.01.11 тихо ()   4000 м  дымка  1/0 верхняя 
[Ci fib]
-30.6 -32.9 79 -31  1060.7  -0.3  765  349           
12 04.01.11 тихо ()   н/о  дымка  ясно 
-32.2 -34.6 80 -32  1061.8  0.9  766  352    -30.5       
15 04.01.11 250 (З) н/о  дымка  ясно 
-32.4 -34.8 80 -33  1061.6  -0.2  766  352           
18 04.01.11 тихо ()   н/о  дымка  ясно 
-33 -36 74 -33  1061.6  -0.1  766  353           
21 04.01.11 тихо ()   н/о  дымка  ясно 
-33.5 -35.9 81 -34  1061.8  766  354           
00 05.01.11 тихо ()   н/о  дымка  ясно 
-33.5 -35.9 81 -34  1061.4  -0.4  765  354  -33.5      27  равномерный
сухой снег
100% 
03 05.01.11 тихо ()   4000 м  дымка  6/0 верхняя 
[Cc]
-32.8 -35.1 79 -33  1060.5  -0.3  765  352           
06 05.01.11 тихо ()   4000 м  дымка  ясно 
-29.4 -31.7 80 -29  1059.1  -0.7  764  347           
09 05.01.11 тихо ()   4000 м  дымка  3/0 верхняя 
[Ci fib]
-29 -32 75 -29  1058.8  -0.3  764  346           
12 05.01.11 тихо ()   н/о  дымка  ясно 
-29.5 -31.9 79 -30  1058.6  -0.4  764  347    -28.6       
15 05.01.11 тихо ()   н/о  дымка  3/0 верхняя 
[Ci fib]
-30.3 -32.7 80 -30  1057  -1.5  763  348           
18 05.01.11 тихо ()   н/о  дымка  ясно 
-31.1 -33.4 80 -31  1056.5  -0.7  762  349           
21 05.01.11 тихо ()   н/о  дымка  3/0 верхняя 
[Ci fib]
-31.6 -33.8 80 -32  1055.1  -1.5  761  349           
00 06.01.11 тихо ()   н/о  дымка  3/0 верхняя 
[Ci fib]
-32.5 -34.8 80 -33  1054.1  -1.1  760  350  -32.7      27  равномерный
сухой снег
100% 
03 06.01.11 тихо ()   4000 м  дымка  ясно 
-31.9 -34.3 81 -32  1053  -0.9  760  349           
06 06.01.11 тихо ()   4000 м  дымка  ясно 
-27.3 -29.8 80 -27  1052.1  -0.1  759  342           
09 06.01.11 тихо ()   4000 м  дымка  ясно 
-27.3 -29.8 80 -27  1051  -1.1  759  342           
12 06.01.11 тихо ()   н/о  дымка  ясно 
-27.8 -29.6 85 -28  1051.6  0.5  759  342    -25.7       
15 06.01.11 тихо ()   н/о  дымка  ясно 
-28.8 -30.5 84 -29  1051.5  -0.3  759  344           
18 06.01.11 тихо ()   н/о  дымка  3/0 
-27.5 -29.9 80 -28  1050.7  -0.4  758  342           
21 06.01.11 тихо ()   4000 м    4/0 верхняя 
[Ci fib]
-25.8 -27.6 85 -26  1050.9  0.3  759  339           
00 07.01.11 тихо ()   4000 м    9/0 верхняя 
[Ci fib]
-26.4 -28.2 85 -26  1050.6  -0.2  759  340  -28.8      27  равномерный
сухой снег
100% 
03 07.01.11 тихо ()   >10 км    9/0 верхняя 
[Ci fib]
-25 -27.4 80 -25  1051.4  0.9  759  339           
06 07.01.11 тихо ()   >10 км  позёмок  10/0 верхняя 
[Cs]
-22.9 -26.1 75 -23  1051.4  0.3  759  336           
09 07.01.11 тихо ()   >10 км    8/0 верхняя 
[Ci fib]
-22.3 -25.5 75 -22  1051.3  759  335           
12 07.01.11 250 (З) 4000 м  позёмок  ясно 
-22.8 -26 76 -29  1051.9  0.5  760  336    -21.8       
15 07.01.11 240 (ЮЗ) 4000 м  позёмок  ясно 
-24.1 -27.3 75 -30  1052.7  0.6  760  338           
18 07.01.11 240 (ЮЗ) 4000 м  позёмок  ясно 
-24.8 -28 74 -31  1053  0.1  760  339           
21 07.01.11 240 (ЮЗ) 4000 м    3/0 верхняя 
[Ci fib]
-24 -27.2 75 -29  1052.8  760  338           
00 08.01.11 260 (З) 4000 м    3/0 верхняя 
[Ci fib]
-23.4 -26.6 75 -26  1051.4  -1.2  759  336  -25      27  равномерный
сухой снег
100% 
03 08.01.11 320 (СЗ) >10 км    8/5 2000 м средняя, верхняя 
[Ac trans|Ci fib]
-22.1 -25.4 75 -22  1050.3  -1  759  334           
06 08.01.11 300 (СЗ) >10 км    9/0 верхняя 
[Ci fib]
-19.4 -22.7 75 -20  1048.6  -1.1  758  330           
09 08.01.11 270 (З) >10 км    9/0 верхняя 
[Ci fib]
-18.9 -22.2 75 -23  1047.2  -1.4  757  329           
12 08.01.11 300 (СЗ) 4000 м    9/4 2000 м средняя, верхняя 
[Ac lent|Ci fib]
-19.1 -22.4 76 -22  1046.6  -0.6  756  329    -18.4       
15 08.01.11 260 (З) 4000 м    9/6 2000 м средняя, верхняя 
[Ac trans|Ci fib]
-19.7 -23 74 -24  1045.5  -1.1  756  330           
18 08.01.11 260 (З) 4000 м    9/6 1000 м средняя 
[Sc|Ac trans]
-19.4 -22.7 75 -24  1044.1  -1.3  755  329           
21 08.01.11 260 (З) 4000 м  позёмок  8/4 2000 м средняя, верхняя 
[Ac trans|Ci fib]
-18.7 -21.3 80 -25  1042.7  -1.3  754  328           
00 09.01.11 260 (З) 4000 м    10/3 2000 м средняя, верхняя 
[Ac trans|Cs]
-18.9 -22.2 75 -23  1041.6  -1.1  753  328  -19.9      27  равномерный
сухой снег
100% 
03 09.01.11 270 (З) >10 км    10/4 2000 м средняя 
[Ac trans]
-19.2 -22.5 75 -23  1039.4  -2.1  751  327           
06 09.01.11 250 (З) >10 км  слаб. снег  10/10 2000 м 
[Ac As]
-17.7 -21 75 -23  1036.9  -2.3  749  325           
09 09.01.11 270 (З) >10 км  слаб. снег  10/10 2000 м 
[Ac As]
-17.5 -20.9 75 -21  1033.7  -2.9  747  323           
12 09.01.11 260 (З) н/о  слаб. снег  10/10 2000 м 
[Ac As]
-15.3 -18.7 75 -19  1032.6  -0.7  747  320    -15.2     
15 09.01.11 270 (З) 4000 м  слаб. снег  10/10 2000 м 
[Ac As]
-14.4 -17.9 75 -17  1033  0.4  747  319           
18 09.01.11 280 (З) 4000 м  слаб. снег  10/10 2000 м 
[Ac As]
-14.8 -18.2 75 -17  1033  -0.1  747  320           
21 09.01.11 280 (З) 4000 м  слаб. снег  10/10 2000 м 
[Ac As]
-15.8 -20 70 -18  1033.3  0.1  747  321           
00 10.01.11 280 (З) 4000 м  слаб. снег  8/8 2000 м средняя 
[Ac As]
-16.2 -19.6 75 -16  1033.2  -0.1  747  321  -16.2    0.1  28  равномерный
сухой снег
100% 
03 10.01.11 270 (З) >10 км  слаб. снег  10/4 2000 м средняя, верхняя 
[Ac trans|Cs]
-15 -18.4 75 -17  1032.9  -0.1  747  320           
06 10.01.11 270 (З) 4{12}  >10 км  позёмок{снег}  10/10 2000 м 
[Ac As]
-12.2 -16.5 70 -16  1031.3  -1.1  746  316           
09 10.01.11 280 (З) >10 км    10/4 1000 м средняя 
[Sc|Ac As]
-11.2 -15.6 70 -13  1030.1  -1.1  745  314           
12 10.01.11 270 (З) 4000 м    9/6 600 м кучево-дожд., средняя 
[Cb cap|Ac trans]
-10.7 -15.1 70 -14  1029  -1  745  314    -10  0.0     
15 10.01.11 250 (З) 4000 м    6/0 верхняя 
[Ci fib]
-11.8 -15.3 75 -14  1027.3  -1.8  743  314           
18 10.01.11 280 (З) 4000 м    8/4 2000 м средняя, верхняя 
[Ac trans|Ci fib]
-14 -17.5 75 -14  1025.2  -2.3  741  316           
21 10.01.11 240 (ЮЗ) 4000 м    8/6 2000 м средняя, верхняя 
[Ac lent|Ci fib]
-13.9 -18.2 70 -16  1023  -2.1  740  316           
00 11.01.11 240 (ЮЗ) 4000 м    3/0 верхняя 
[Ci fib]
-14.5 -19.6 65 -18  1020.8  -2.1  738  316  -14.5      28  равномерный
сухой снег
100% 
03 11.01.11 240 (ЮЗ) >10 км  позёмок  9/5 600 м кучево-дожд., средняя 
[Cb cap|Ac trans]
-13.8 -19 65 -18  1018.2  -2.5  736  314           
06 11.01.11 230 (ЮЗ) >10 км  слаб. ливневой снег  10/10 600 м кучево-дожд. 
[Cb cap]
-12 -18.2 60 -16    -1  736  311           
09 11.01.11 270 (З) >10 км  слаб. ливневой снег  10/10 600 м кучево-дожд. 
[Cb cap]
-11.9 -17.1 65 -14  1016.3  -0.6  735  311           
12 11.01.11 250 (З) 4000 м  слаб. ливневой снег  9/4 600 м кучево-дожд., средняя, верхняя 
[Cb cap|Ac trans|Ci fib]
-13.7 -16.4 80 -16  1017.7  1.1  736  314    -11.7  0.2     
15 11.01.11 310 (СЗ) 4000 м  слаб. ливневой снег  10/3 600 м кучево-дожд., верхняя 
[Cb cap|Cs]
-14.8 -17.5 80 -15  1019.4  1.5  737  315           
18 11.01.11 300 (СЗ) 4000 м  слаб. снег{ливн. осадки}  10/0 верхняя 
[Cs]
-17.5 -22.5 65 -20  1022.6  2.8  739  320           
21 11.01.11 270 (З) 4000 м  слаб. снег  10/10 2000 м 
[Ns]
-18.7 -22 75 -19  1025.1  2.1  741  322           
00 12.01.11 тихо ()   4000 м  слаб. снег  10/0 верхняя 
[Cs]
-20.4 -22.3 85 -20  1027.8  2.5  743  325    -20.4  0.0  27  равномерный
сухой снег
100% 
03 12.01.11 240 (ЮЗ) >10 км  {снег}  8/0 верхняя 
[Ci fib]
-22.5 -25 80 -23  1031  2.8  745  329           
06 12.01.11 270 (З) >10 км    3/0 верхняя 
[Ci fib]
-18.9 -23.8 65 -19  1033.2  2.5  747  325           
09 12.01.11 270 (З) >10 км    ясно 
-19.8 -23.9 70 -20  1035.5  2.1  748  327           
12 12.01.11 240 (ЮЗ) 4000 м    ясно 
-21.1 -24.4 75 -24  1037.5  1.8  750  329    -18.8  0.0     
15 12.01.11 290 (З) 4000 м    ясно 
-22.1 -25.4 75 -22  1038.8  0.1  750  331           
18 12.01.11 тихо ()   4000 м    ясно 
-24.2 -26.6 80 -24  1039.7  0.7  751  334           
21 12.01.11 тихо ()   4000 м    ясно 
-24.1 -26.6 80 -24  1039.9  0.2  751  334           
00 13.01.11 350 (С) 4000 м    ясно 
-20.9 -24.2 75 -21  1038.9  -0.8  750  329  -24.4      27  равномерный
сухой снег
100% 
03 13.01.11 150 (ЮВ) >10 км    8/0 верхняя 
[Ci fib]
-19.2 -22.5 75 -19  1037.7  -0.6  750  327           
06 13.01.11 250 (З) 4{14}  >10 км  позёмок  10/0 верхняя 
[Cs]
-15.8 -20.9 65 -21  1035.8  -1.4  749  322           
09 13.01.11 230 (ЮЗ) 8{15}  >10 км  метель  10/5 600 м кучево-дожд., средняя, верхняя 
[Cb cap|Ac lent|Cs]
-14.4 -19.5 65 -22  1034.2  -1.3  748  320           
12 13.01.11 230 (ЮЗ) 7{17}  4000 м  метель  10/6 600 м кучево-дожд., средняя 
[Cb cap|Ac As]
-13.4 -19.5 60 -20  1033.6  -0.5  748  318    -13.3       
15 13.01.11 230 (ЮЗ) 7{18}  4000 м  метель  10/10 2000 м 
[As trans]
-13 -19.1 60 -20  1032.2  -1.3  747  317           
18 13.01.11 230 (ЮЗ) 7{17}  н/о  ливневой снег  10/10 600 м кучево-дожд. 
[Cb cap]
-12.6 -14.6 85 -19  1031.4  -0.6  746  316           
21 13.01.11 220 (ЮЗ) 7{17}  н/о  ливневой снег  10/10 600 м кучево-дожд. 
[Cb cap]
-11.6 -13.6 85 -18  1031.7  0.4  746  315           
00 14.01.11 280 (З) 1{15}  н/о  ливневой снег  10/10 600 м кучево-дожд. 
[Cb cap]
-11.2 -13.2 85 -11  1031.9  0.2  747  315  -13.5    24  равномерный
сухой снег
100% 
03 14.01.11 230 (ЮЗ) 6{13}  4000 м  ливневой снег  10/10 600 м кучево-дожд. 
[Cb cap]
-10.7 -13.5 80 -16  1032.3  0.4  747  314           
06 14.01.11 240 (ЮЗ) 6{13}  10 км  слаб. ливневой снег  10/10 600 м кучево-дожд. 
[Cb cap]
-9.6 -12.2 81 -15  1033  0.5  747  313           
09 14.01.11 240 (ЮЗ) >10 км  слаб. ливневой снег  8/6 600 м кучево-дожд., средняя 
[Cb cap|Ac trans]
-9.2 -11.7 82 -12  1034.7  2.1  749  313           
12 14.01.11 260 (З) 4000 м  слаб. ливневой снег  9/6 600 м кучево-дожд., средняя 
[Cb cap|Ac trans]
-9.4 -11.9 82 -11  1037.2  2.4  751  314    -8.9     
15 14.01.11 240 (ЮЗ) 4000 м  слаб. ливневой снег  9/6 600 м кучево-дожд., средняя 
[Cb cap|Ac trans]
-10.2 -13 80 -12  1039.4  1.9  752  316           
18 14.01.11 260 (З) 4000 м  слаб. ливневой снег  8/4 600 м кучево-дожд., средняя 
[Cb cap|Ac trans]
-11.2 -14 80 -13  1040.7  1.2  753  318           
21 14.01.11 240 (ЮЗ) 4000 м  слаб. ливневой снег  9/6 600 м кучево-дожд., средняя 
[Cb cap|Ac trans]
-12.4 -15.1 81 -14  1042.6  1.7  754  320           
00 15.01.11 250 (З) 4000 м  слаб. ливневой снег  10/10 600 м кучево-дожд. 
[Cb cap]
-12.5 -15.2 80 -16  1043.1  0.5  755  320  -12.8    0.2  23  равномерный
сухой снег
100% 
03 15.01.11 290 (З) >10 км  {ливн. осадки}  4/0 верхняя 
[Ci fib]
-13.5 -16.2 80 -13  1044.5  1.2  756  322           
06 15.01.11 тихо ()   >10 км  {ливн. осадки}  ясно 
-11.9 -14.6 80 -12  1045.2  0.7  756  320           
09 15.01.11 тихо ()   4000 м  дымка  ясно 
-13.8 -16.5 80 -14  1045.8  0.5  756  322           
12 15.01.11 240 (ЮЗ) н/о  дымка  ясно 
-16.7 -17.9 90 -17  1047.1  0.7  757  326    -11.4  0.0     
15 15.01.11 270 (З) н/о  дымка  ясно 
-18.8 -20.7 85 -19  1047.6  0.2  757  329           
18 15.01.11 тихо ()   н/о  дымка  ясно 
-22 -23.8 86 -22  1048.5  0.4  757  334           
21 15.01.11 тихо ()   н/о  дымка  ясно 
-23.9 -25.7 85 -24  1049  0.2  758  336           
00 16.01.11 тихо ()   н/о  дымка  ясно 
-25.2 -27 85 -25  1049.3  0.2  758  338  -25.2      23  равномерный
сухой снег
100% 
03 16.01.11 тихо ()   4000 м  дымка  ясно 
-25.9 -27.7 85 -26  1050.1  0.6  758  339           
06 16.01.11 тихо ()   4000 м  дымка  3/0 верхняя 
[Ci fib]
-21.4 -22.6 90 -21  1048.8  -0.5  758  333           
09 16.01.11 тихо ()   4000 м  дымка  ясно 
-20.1 -22 85 -20  1048.6  -0.1  758  331           
12 16.01.11 250 (З) н/о  дымка  ясно 
-21.9 -23.1 91 -22  1048.9  758  334    -19       
15 16.01.11 тихо ()   н/о  дымка  ясно 
-23.2 -24.4 89 -23  1048.4  -0.6  757  335           
18 16.01.11 тихо ()   н/о  дымка  ясно 
-24.1 -25.3 90 -24  1047.7  -0.9  757  336           
21 16.01.11 тихо ()   н/о  дымка  ясно 
-25.5 -26.7 90 -26  1046.7  -1  756  338           
00 17.01.11 тихо ()   н/о  дымка  ясно 
-25.8 -27 89 -26  1046  -0.9  755  338  -25.8      24  равномерный
сухой снег
100% 
03 17.01.11 тихо ()   4000 м  дымка  ясно 
-26.4 -28.8 80 -26  1045.2  -0.8  755  338           
06 17.01.11 тихо ()   4000 м  дымка  ясно 
-21 -22.8 85 -21  1043.1  -1.3  754  331           
09 17.01.11 тихо ()   4000 м  дымка  ясно 
-21.4 -23.3 85 -21  1042.1  -0.9  753  331           
12 17.01.11 тихо ()   н/о  дымка  ясно 
-22.2 -25.4 76 -22  1042.2  753  332    -21.4       
15 17.01.11 тихо ()   н/о  дымка  ясно 
-24.4 -26.9 80 -24  1042.3  -0.2  753  335           
18 17.01.11 тихо ()   н/о  дымка  ясно 
-25.9 -27.7 85 -26  1042.6  -0.1  753  337           
21 17.01.11 тихо ()   н/о  дымка  ясно 
-27.3 -29.8 80 -27  1042.9  0.2  753  339           
00 18.01.11 тихо ()   н/о  дымка  ясно 
-28 -29.8 85 -28  1043.3  0.2  753  340  -28      24  равномерный
сухой снег
100% 
03 18.01.11 тихо ()   2000 м  дымка  ясно 
-28.7 -30.5 84 -29  1044.4  0.9  754  341           
06 18.01.11 тихо ()   2000 м  дымка  ясно 
-25 -26.7 85 -25  1043.5  -0.2  754  336           
09 18.01.11 тихо ()   2000 м  дымка  ясно верхняя 
[Ci fib]
-24.2 -26.6 80 -24  1043.2  -0.1  753  335           
12 18.01.11 тихо ()   н/о  дымка  3/0 верхняя 
[Ci fib]
-25.9 -27.7 85 -26  1044.7  754  338    -23.1       
15 18.01.11 тихо ()   н/о  дымка  ясно 
-26.9 -28.6 85 -27  1045.1  0.3  754  339           
18 18.01.11 тихо ()   н/о  дымка  ясно 
-28.2 -30 85 -28  1045.3  754  341           
21 18.01.11 240 (ЮЗ) н/о  дымка  ясно 
-27.4 -29.1 85 -28  1045.3  0.2  755  340           
00 19.01.11 тихо ()   н/о  дымка  ясно 
-29.1 -30.9 85 -29  1045.8  0.1  755  342  -29.1      24  равномерный
сухой снег
100% 
03 19.01.11 тихо ()   2000 м  дымка  ясно 
-30 -32.3 80 -30  1047  1.1  755  344           
06 19.01.11 тихо ()   2000 м  дымка  9/0 кучево-дожд., верхняя 
[Cb cap|Ci fib]
-25 -27.4 80 -25  1045.6  -0.6  755  337           
09 19.01.11 тихо ()   4000 м  слаб. ливневой снег  4/3 600 м кучево-дожд., средняя 
[Cb cap|Ac trans]
-23.2 -25 85 -23  1045.9  0.6  755  334           
12 19.01.11 тихо ()   н/о  слаб. ливневой снег  9/3 600 м кучево-дожд., средняя 
[Cb cap|Ac trans]
-23.9 -25.7 85 -24  1046.7  -0.6  756  336    -22.1  0.0     
15 19.01.11 тихо ()   н/о  слаб. ливневой снег  9/4 600 м кучево-дожд., средняя 
[Cb cap|Ac trans]
-24.7 -26.5 84 -25  1046.6  -0.2  756  337           
18 19.01.11 тихо ()   н/о  дымка{ливн. осадки}  8/8 2000 м средняя 
[Ac trans]
-27.3 -29.1 85 -27  1046.4  -0.5  755  340           
21 19.01.11 тихо ()   н/о  дымка  9/9 2000 м средняя 
[Ac trans]
-26.6 -29.9 73 -27  1045.7  -0.6  755  339           
00 20.01.11 тихо ()   н/о  дымка{ливн. осадки}  9/3 600 м кучево-дожд., средняя 
[Cb cap|Ac trans]
-26.5 -28.3 86 -27  1045.9  0.2  755  339  -27.3      24  равномерный
сухой снег
100% 
03 20.01.11 тихо ()   4000 м  слаб. снег  10/5 2000 м средняя, верхняя 
[Ac lent|Cs]
-25.5 -28 79 -26  1045.7  755  337           
06 20.01.11 050 (СВ) 4000 м  слаб. снег  10/8 2000 м средняя, верхняя 
[Ac cast|Cs]
-22.5 -25 80 -23  1044.4  -0.8  755  333           
09 20.01.11 тихо ()   4000 м  слаб. снег  10/5 2000 м средняя, верхняя 
[Ac lent|Cs]
-22.7 -25.2 80 -23  1045.1  0.5  755  333           
12 20.01.11 тихо ()   н/о  слаб. снег  10/0 верхняя 
[Cs]
-24.8 -27.3 79 -25  1046.2  0.8  755  337  -21.6    0.4     
15 20.01.11 тихо ()   н/о  дымка{снег}  ясно 
-27.3 -29.8 80 -27  1047.1  0.5  756  340           
18 20.01.11 тихо ()   н/о  дымка{снег}  ясно 
-28.4 -31.5 75 -28  1047.1  -0.1  756  342           
21 20.01.11 тихо ()   н/о  дымка  3/0 верхняя 
[Ci fib]
-30.3 -32.7 80 -30  1048.1  0.6  756  345           
00 21.01.11 тихо ()   н/о  дымка  10/0 верхняя 
[Cs]
-30.7 -32.9 79 -31  1049.2  0.9  757  346  -31    0.0  24  равномерный
сухой снег
100% 
03 21.01.11 тихо ()   4000 м  дымка  ясно 
-32.3 -33.9 85 -32  1050.4  758  348           
06 21.01.11 090 (В) 4000 м  дымка  4/0 
-28.2 -30 85 -29  1049.8  0.1  758  342           
09 21.01.11 тихо ()   4000 м  дымка  3/0 верхняя 
[Ci fib]
-27 -29.4 81 -27  1050  0.3  758  341           
12 21.01.11 240 (ЮЗ) н/о  дымка  ясно 
-29 -30.7 86 -30  1051.3  0.9  759  344    -26.7       
15 21.01.11 тихо ()   н/о  дымка  ясно 
-30 -31.7 84 -30  1051  -0.4  758  345           
18 21.01.11 тихо ()   н/о  дымка  ясно 
-31.3 -33 84 -31  1050.5  -0.6  758  347           
21 21.01.11 тихо ()   н/о  дымка  ясно 
-32 -33.7 86 -32  1050.7  758  348           
00 22.01.11 тихо ()   н/о  дымка  ясно 
-33.3 -35 84 -33  1050.6  -0.3  758  350  -33.3      24  равномерный
сухой снег
100% 
03 22.01.11 тихо ()   4000 м  дымка  ясно 
-33 -35.3 79 -33  1050.7  0.1  758  349           
06 22.01.11 тихо ()   4000 м  дымка  ясно 
-28.5 -30.8 81 -29  1049  -0.8  757  343           
09 22.01.11 тихо ()   4000 м  дымка  ясно 
-26.8 -30 75 -27  1048.7  -0.2  757  340           
12 22.01.11 тихо ()   н/о  дымка  ясно 
-29 -31.3 80 -29  1049  757  343    -26       
15 22.01.11 тихо ()   н/о  дымка  ясно 
-29.8 -32.1 81 -30  1048.4  -0.6  757  344           
18 22.01.11 тихо ()   н/о  дымка  ясно 
-30.6 -32.9 79 -31  1047.9  -0.7  756  345           
21 22.01.11 тихо ()   н/о  дымка  ясно 
-31.3 -33.6 80 -31  1047.5  -0.4  756  346           
00 23.01.11 тихо ()   н/о  дымка  ясно 
-32.3 -34.6 80 -32  1046.8  -0.8  755  347  -32.3      24  равномерный
сухой снег
100% 
03 23.01.11 тихо ()   4000 м  дымка  ясно 
-31.8 -34.1 79 -32  1046.9  755  346           
06 23.01.11 тихо ()   4000 м  дымка  ясно 
-26.4 -28.8 80 -26  1045  -0.9  754  338           
09 23.01.11 тихо ()   4000 м  дымка  ясно 
-24.8 -27.3 79 -25  1044.2  -0.5  754  336           
12 23.01.11 тихо ()   н/о  дымка  ясно 
-27.3 -29.1 85 -27  1044.7  0.1  754  339    -22.6       
15 23.01.11 тихо ()   н/о  дымка  ясно 
-28.5 -30.2 86 -29  1044.5  -0.3  754  341           
18 23.01.11 240 (ЮЗ) н/о  дымка  ясно 
-28.9 -30.7 86 -30  1044.4  -0.3  754  342           
21 23.01.11 тихо ()   н/о  дымка  ясно 
-30.6 -32.3 85 -31  1044.3  -0.4  753  344           
00 24.01.11 тихо ()   н/о  дымка  ясно 
-31.1 -33.4 80 -31  1044.2  -0.1  753  344  -31.1      24  равномерный
сухой снег
100% 
03 24.01.11 тихо ()   4000 м  дымка  ясно 
-31.7 -34.1 79 -32  1044.3  753  345           
06 24.01.11 тихо ()   4000 м  дымка  ясно 
-27.3 -29.8 80 -27  1043  -0.5  753  339           
09 24.01.11 тихо ()   4000 м  дымка  ясно 
-26.1 -29.2 75 -26  1043.3  0.4  753  337           
12 24.01.11 250 (З) н/о  дымка  ясно 
-28 -30.4 80 -29  1044.6  754  340    -25.7       
15 24.01.11 тихо ()   н/о  дымка  ясно 
-29.5 -31.9 79 -30  1045.3  0.4  754  343           
18 24.01.11 тихо ()   н/о  дымка  ясно 
-30.3 -32.7 80 -30  1045.6  0.2  754  344           
21 24.01.11 тихо ()   н/о  дымка  ясно 
-31.2 -33.6 80 -31  1046.5  0.7  755  345           
00 25.01.11 260 (З) н/о  дымка  ясно 
-31.5 -33.8 80 -32  1047.1  0.4  755  346  -31.5      24  равномерный
сухой снег
100% 
03 25.01.11 тихо ()   4000 м  дымка  ясно 
-31 -33.4 80 -31  1047.8  0.9  756  346           
06 25.01.11 тихо ()   4000 м  дымка  ясно 
-25.8 -28.2 80 -26  1047.5  0.5  756  338           
09 25.01.11 тихо ()   4000 м  дымка  ясно 
-23.7 -26.8 75 -24  1047.2  756  336           
12 25.01.11 тихо ()   н/о  дымка  ясно 
-26.4 -28.8 80 -26  1048.8  1.2  757  340    -23       
15 25.01.11 тихо ()   н/о  дымка  ясно 
-27.3 -29.8 80 -27  1049.9  0.9  758  341           
18 25.01.11 тихо ()   н/о  дымка  ясно 
-28.6 -31 79 -29  1050.7  0.5  758  343           
21 25.01.11 тихо ()   н/о  дымка  6/0 верхняя 
[Ci fib]
-29.7 -32.1 81 -30  1051.5  0.5  759  345           
00 26.01.11 тихо ()   н/о  дымка  8/3 2000 м средняя, верхняя 
[Ac lent|Ci fib]
-28.6 -31 79 -29  1051.7  0.4  759  343  -30.5      24  равномерный
сухой снег
100% 
03 26.01.11 240 (ЮЗ) >10 км  позёмок  ясно 
-22.4 -25.6 75 -28  1051.8  1.2  760  335           
06 26.01.11 230 (ЮЗ) >10 км    ясно 
-19 -23.1 70 -23  1051.2  -0.1  760  331           
09 26.01.11 110 (В) >10 км    ясно 
-17.2 -21.4 70 -17  1051.1  0.2  760  328           
12 26.01.11 110 (В) 4000 м    ясно 
-20.8 -24.1 74 -21  1051.5  -0.2  760  333    -16.8       
15 26.01.11 350 (С) 4000 м    ясно 
-20.1 -22.7 80 -20  1050.8  -0.6  759  332           
18 26.01.11 340 (С) 4000 м    ясно 
-19.1 -22.4 76 -19  1049.3  -1.2  758  330           
21 26.01.11 230 (ЮЗ) 4000 м    6/0 верхняя 
[Ci fib]
-17.3 -21.5 70 -17  1047.5  -1.5  757  327           
00 27.01.11 240 (ЮЗ) 4000 м  позёмок  8/6 2000 м средняя, верхняя 
[Ac trans|Ci fib]
-15.9 -21 65 -22  1045.5  -1.8  756  325  -21      25  равномерный
сухой снег
100% 
03 27.01.11 230 (ЮЗ) 8{15}  >10 км  метель  10/10 2000 м 
[Ns]
-15 -21 60 -22  1044.3  -1  755  324           
06 27.01.11 230 (ЮЗ) 7{15}  >10 км  метель  10/6 600 м кучево-дожд., средняя 
[Cb cap|Ac As]
-13.5 -20.6 55 -20  1043.1  -0.9  755  321           
09 27.01.11 230 (ЮЗ) 8{16}  >10 км  метель  10/9 2000 м средняя 
[Ac trans]
-12.5 -18.7 60 -19  1040.8  -0.2  753  319           
12 27.01.11 230 (ЮЗ) 7{16}  4000 м  метель  8/6 2000 м средняя, верхняя 
[Ac trans|Ci fib]
-12.5 -16 75 -19  1040.5  -0.3  753  319    -12       
15 27.01.11 230 (ЮЗ) 7{12}  4000 м  метель  9/0 верхняя 
[Ci fib]
-11.9 -15.4 75 -18  1039.4  -1.1  752  318           
18 27.01.11 230 (ЮЗ) 4000 м  метель  3/0 верхняя 
[Ci fib]
-12.5 -16 75 -18  1038.7  -0.6  752  319           
21 27.01.11 230 (ЮЗ) 4000 м  метель  3/0 верхняя 
[Ci fib]
-12.4 -15.9 75 -18  1037.7  -0.1  751  318           
00 28.01.11 230 (ЮЗ) 6{12}  4000 м  метель  6/0 верхняя 
[Ci fib]
-12.3 -16.6 70 -18  1036.8  -0.9  750  318  -12.5      22  равномерный
сухой снег
100% 
03 28.01.11 240 (ЮЗ) 5{12}  >10 км  позёмок  10/4 2000 м средняя, верхняя 
[Ac lent|Ci fib]
-10.9 -16.2 65 -16  1036.1  -0.6  750  316           
06 28.01.11 230 (ЮЗ) 8{15}  >10 км  метель  10/3 2000 м средняя, верхняя 
[Ac lent|Cs]
-8.7 -14.1 65 -15  1035.3  -0.4  749  313           
09 28.01.11 230 (ЮЗ) 7{15}  >10 км  метель  3/0 верхняя 
[Ci fib]
-7.6 -13.6 62 -13  1034.8  -0.2  749  312           
12 28.01.11 230 (ЮЗ) 7{14}  4000 м  позёмок  ясно 
-8.3 -14.6 61 -14  1034.6  -0.4  749  312    -7.2       
15 28.01.11 250 (З) 5{14}  4000 м  позёмок  ясно 
-8.2 -15.7 55 -13  1032.9  -1.7  748  312           
18 28.01.11 240 (ЮЗ) 4{16}  4000 м    ясно 
-7.9 -15.9 53 -12  1031  -1.8  746  311           
21 28.01.11 240 (ЮЗ) 9{16}  4000 м  позёмок  ясно 
-6.9 -14.8 53 -13  1027.5  -3.2  744  309           
00 29.01.11 250 (З) 7{17}  4000 м    3/0 верхняя 
[Ci fib]
-6.9 -14.8 53 -12  1027  -0.5  743  309  -8.5      22  равномерный
мокрый или
старый снег
100% 
03 29.01.11 240 (ЮЗ) 10{20}  >10 км  сильная метель  3/0 верхняя 
[Ci fib]
-6.5 -16.1 46 -13  1025.4  -1.8  742  308           
06 29.01.11 230 (ЮЗ) 9{19}  >10 км  сильная метель  3/0 верхняя 
[Ci fib]
-4.6 -16.4 39 -10  1023.4  -1.3  741  305           
09 29.01.11 220 (ЮЗ) 10 км    ясно 
-2 -13.1 42 -3  1023.4  -1.3  750  305           
12 29.01.11 230 (ЮЗ) 7{16}  4000 м  метель  ясно верхняя 
[Ci fib]
-4.7 -16.6 39 -10  1022.7  -0.6  741  305    -2.9       
15 29.01.11 240 (ЮЗ) 6{15}  4000 м  метель  ясно 
-4.2 -16.3 38 -8  1020.9  -1.6  739  304           
21 29.01.11 240 (ЮЗ) 4000 м  позёмок  ясно 
-4.8 -16.8 39 -9  1020.2  -0.1  739  304           
00 30.01.11 240 (ЮЗ) 8{14}  4000 м  метель  ясно 
-5 -17.3 38 -10  1017.9  -2.3  737  304  -5.3      21  равномерный
мокрый или
старый снег
100% 
03 30.01.11 240 (ЮЗ) 8{16}  >10 км  метель  9/0 верхняя 
[Ci]
-4.6 -17.1 37 -10  1017.4  -0.4  737  303           
06 30.01.11 240 (ЮЗ) 8{16}  >10 км  позёмок  9/0 верхняя 
[Ci]
-3.2 -17 34 -8  1015.7  -1.5  736  301           
09 30.01.11 240 (ЮЗ) 8{16}  >10 км  позёмок  9/0 верхняя 
[Ci]
-2 -16.8 31 -7  1013.5  -2  734  299           
12 30.01.11 230 (ЮЗ) 7{15}  4000 м  позёмок  9/0 средняя, верхняя 
[Sc|Ac lent|Ci fib]
-3 -16.6 34 -7  1013.1  -0.5  734  300    -1.5       
15 30.01.11 230 (ЮЗ) 5{15}  4000 м  позёмок  10/0 верхняя 
[Cs]
-2.8 -18.4 29 -6  1012.3  -0.7  733  300           
18 30.01.11 240 (ЮЗ) 6{14}  4000 м  позёмок  10/0 средняя 
[Ac As]
-2.7 -16.6 33 -7  1010.6  -1.7  732  299           
21 30.01.11 270 (З) 6{14}  4000 м  позёмок  9/0 верхняя 
[Ci fib]
-2.1 -11.2 50 -6  1012.8  2.3  734  299           
00 31.01.11 240 (ЮЗ) 3{12}  4000 м    8/3 600 м кучево-дожд., верхняя 
[Cb cap|Ci fib]
-4 -12.3 52 -6  1014.3  1.1  735  301  -4      21  равномерный
мокрый или
старый снег
100% 
03 31.01.11 260 (З) 4{12}  >10 км  позёмок  9/5 600 м кучево-дожд., средняя, верхняя 
[Cb cap|Ac trans|Ci fib]
-4.4 -13 51 -8  1015.1  0.8  735  302           
06 31.01.11 260 (З) 4{16}  >10 км  слаб. ливневой снег  9/8 600 м кучево-дожд., средняя 
[Cb cap|Ac trans]
-4.6 -12.2 55 -8  1017  1.8  737  303           
09 31.01.11 260 (З) >10 км  слаб. ливневой снег  9/4 600 м кучево-дожд., средняя 
[Cb cap|Ac trans]
-5.7 -10 72 -8  1018.7  1.6  738  305           
12 31.01.11 260 (З) 4000 м  слаб. ливневой снег  9/4 600 м кучево-дожд., средняя 
[Cb cap|Ac trans]
-6.1 -8.8 81 -9  1020.7  1.7  739  305    -3.4  0.5     
15 31.01.11 250 (З) 4000 м  позёмок{ливн. осадки}  8/4 600 м кучево-дожд., средняя 
[Cb cap|Ac trans]
-6.6 -12.7 62 -10  1020.4  -0.4  739  306           
18 31.01.11 230 (ЮЗ) 4{12}  4000 м  позёмок{ливн. осадки}  6/3 2000 м средняя, верхняя 
[Ac trans|Ci fib]
-5.7 -11.4 64 -9  1017.1  -2.9  737  304           
21 31.01.11 260 (З) 6{16}  4000 м  слаб. ливневой снег  10/10 600 м кучево-дожд. 
[Cb cap]
-4.6 -10.3 65 -9  1015.1  -1.8  735  302           
00 01.02.11 250 (З) 5{16}  4000 м  позёмок{ливн. осадки}  8/8 2000 м средняя 
[Ac trans]
-4.2 -11.6 56 -8  1014.4  -0.7  735  302  -7    0.0  19  равномерный
сухой снег
100% 
03 01.02.11 260 (З) 6{14}  >10 км  позёмок  10/3 1000 м средняя 
[Sc|Ac As]
-3.7 -13.5 46 -8  1015.3  0.9  735  301           
06 01.02.11 270 (З) 5{14}  >10 км  слаб. ливневой снег{морось}  10/6 600 м кучево-дожд., средняя 
[Cb cap|Ac As]
-3.6 -11.6 54 -7  1015.7  0.5  736  301           
09 01.02.11 260 (З) 3{12}  >10 км  слаб. ливневой снег  9/6 600 м кучево-дожд., средняя 
[Cb cap|Ac trans]
-3.7 -11.3 55 -6  1016  0.3  736  302           
12 01.02.11 240 (ЮЗ) 4000 м  {ливн. осадки}  9/6 600 м кучево-дожд., средняя 
[Cb cap|Ac trans]
-3.9 -12.7 50 -7  1015.4  -0.7  735  302    -3.2  0.0     
Время (UTC), дата Ветер
(°,м/с) 
Видим.   Явления Облачность Т
(°С)
Тd
(°С)
f(%) Тe
(°С)
Pmin
(гПа)
dP
(гПа)
Po
(мм)
O2
(г/м3)
Тmin Tmax R s Состояние
почвы